Weather History for K0VG - July, 2013

Change the Weather History Date:

Monday, July 22, 2013

  Actual Average (KLOZ) Record (KLOZ)
Temperature  
Mean Temperature 74 °F 76 °F  
Max Temperature 80 °F 86 °F 94 °F (1978)
Min Temperature 68 °F 66 °F 56 °F (1966)
Degree Days  
Heating Degree Days 0 0  
Month to date heating degree days 0  
Since 1 June heating degree days 9  
Since 1 July heating degree days 0  
Cooling Degree Days 9 11  
Month to date cooling degree days 242  
Growing Degree Days 24 (Base 50)    
Moisture  
Dew Point 69 °F    
Average Humidity 91    
Maximum Humidity 100    
Minimum Humidity 65    
Precipitation  
Precipitation 0.55 in 0.13 in 0.99 in (1977)
Month to date precipitation 2.89  
Sea Level Pressure  
Sea Level Pressure 29.97 in    
Wind  
Wind Speed 2 mph (SW)    
Max Wind Speed 14 mph    
Max Gust Speed 16 mph    
Visibility 8 miles    
Events Fog , Rain , Thunderstorm    
T = Trace of Precipitation, MM = Missing Value Source: NWS Daily Summary

Daily Weather History Graph

Daily Weather History Graph

Search for Another Location

Airport or City:

Trip Planner

Search our weather history database for the weather conditions in past years. The results will help you decide how hot, cold, wet, or windy it might be!

Date:

Astronomy

Jul. 22, 2013 Rise Set
Actual Time 6:31 AM EDT 8:47 PM EDT
Civil Twilight 6:01 AM EDT 9:16 PM EDT
Nautical Twilight 5:25 AM EDT 9:52 PM EDT
Astronomical Twilight 4:46 AM EDT 10:31 PM EDT
Moon 8:35 PM EDT (7/22) 6:24 AM EDT (7/22)
Length of Visible Light 15h 14m
Length of Day
14h 15m
Full, 100% of the Moon is Illuminated
Jul 22
Full
Jul 22
Full
Jul 29
Last Quarter
Aug 6
New
Aug 14
First Quarter

Hourly Weather History & Observations

Time (EDT) Temp. Heat Index Dew Point Humidity Pressure Visibility Wind Dir Wind Speed Gust Speed Precip Events Conditions
12:15 AM 69.8 °F - 69.8 °F 100% 30.05 in 1.8 mi Calm Calm - N/A   Overcast
12:35 AM 69.8 °F - 69.8 °F 100% 30.05 in 0.2 mi Calm Calm - N/A Fog Fog
12:55 AM 69.8 °F - 69.8 °F 100% 30.04 in 0.5 mi Calm Calm - N/A Fog Fog
1:15 AM 69.8 °F - 69.8 °F 100% 30.04 in 0.8 mi Calm Calm - N/A   Overcast
1:35 AM 69.8 °F - 69.8 °F 100% 30.03 in 1.0 mi Calm Calm - N/A   Overcast
1:55 AM 69.8 °F - 69.8 °F 100% 30.02 in 0.5 mi Calm Calm - N/A Fog Fog
2:15 AM 68.0 °F - 68.0 °F 100% 30.03 in 0.2 mi Calm Calm - N/A Fog Fog
2:35 AM 69.8 °F - 69.8 °F 100% 30.02 in 2.0 mi Calm Calm - N/A   Overcast
2:55 AM 69.8 °F - 69.8 °F 100% 30.02 in 1.8 mi Calm Calm - N/A   Overcast
3:15 AM 68.0 °F - 68.0 °F 100% 30.01 in 2.0 mi Calm Calm - N/A   Overcast
3:35 AM 68.0 °F - 68.0 °F 100% 30.00 in 1.2 mi Calm Calm - N/A   Overcast
3:55 AM 68.0 °F - 68.0 °F 100% 30.00 in 1.0 mi Calm Calm - N/A   Overcast
4:15 AM 68.0 °F - 68.0 °F 100% 29.99 in 1.2 mi Calm Calm - N/A   Overcast
4:35 AM 68.0 °F - 68.0 °F 100% 29.99 in 3.0 mi Calm Calm - N/A   Mostly Cloudy
4:55 AM 68.0 °F - 68.0 °F 100% 29.99 in 4.0 mi Calm Calm - N/A   Mostly Cloudy
5:15 AM 68.0 °F - 68.0 °F 100% 29.99 in 4.0 mi Calm Calm - N/A   Mist
5:35 AM 68.0 °F - 68.0 °F 100% 29.99 in 6.0 mi Calm Calm - N/A   Mist
5:55 AM 69.8 °F - 69.8 °F 100% 29.99 in 10.0 mi Calm Calm - N/A   Unknown
6:15 AM 69.8 °F - 69.8 °F 100% 30.00 in 10.0 mi Calm Calm - N/A   Unknown
6:35 AM 69.8 °F - 69.8 °F 100% 29.99 in 10.0 mi Calm Calm - N/A   Unknown
6:55 AM 69.8 °F - 69.8 °F 100% 30.00 in 10.0 mi Calm Calm - N/A   Unknown
7:15 AM 69.8 °F - 69.8 °F 100% 30.00 in 10.0 mi Calm Calm - N/A   Unknown
7:35 AM 71.6 °F - 71.6 °F 100% 30.01 in 10.0 mi Calm Calm - N/A   Overcast
7:55 AM 71.6 °F - 71.6 °F 100% 30.01 in 10.0 mi Calm Calm - N/A   Overcast
8:15 AM 71.6 °F - 71.6 °F 100% 30.01 in 10.0 mi Calm Calm - N/A   Overcast
8:35 AM 71.6 °F - 69.8 °F 94% 30.02 in 10.0 mi Calm Calm - N/A   Overcast
8:55 AM 71.6 °F - 69.8 °F 94% 30.02 in 10.0 mi Calm Calm - N/A   Overcast
9:35 AM 73.4 °F - 71.6 °F 94% 30.02 in 10.0 mi South 5.8 mph - N/A   Overcast
10:55 AM 73.4 °F - 69.8 °F 88% 30.02 in 10.0 mi South 5.8 mph - N/A   Mostly Cloudy
11:15 AM 75.2 °F - 68.0 °F 78% 30.01 in 10.0 mi SSW 4.6 mph - N/A   Mostly Cloudy
11:35 AM 75.2 °F - 68.0 °F 78% 30.02 in 10.0 mi SSW 6.9 mph - N/A   Overcast
11:55 AM 75.2 °F - 68.0 °F 78% 30.01 in 10.0 mi Calm Calm - N/A   Overcast
12:15 PM 75.2 °F - 69.8 °F 83% 30.01 in 10.0 mi Calm Calm - N/A   Overcast
12:35 PM 75.2 °F - 69.8 °F 83% 30.00 in 10.0 mi SSW 5.8 mph - N/A   Mostly Cloudy
12:55 PM 77.0 °F - 69.8 °F 78% 30.00 in 10.0 mi SW 10.4 mph - N/A   Mostly Cloudy
1:15 PM 77.0 °F - 69.8 °F 78% 29.99 in 10.0 mi SSW 11.5 mph - N/A   Scattered Clouds
1:35 PM 77.0 °F - 68.0 °F 74% 29.98 in 10.0 mi SW 9.2 mph - N/A   Scattered Clouds
1:55 PM 80.6 °F 83.2 °F 68.0 °F 65% 29.97 in 10.0 mi SSW 9.2 mph - N/A   Mostly Cloudy
2:15 PM 80.6 °F 83.2 °F 68.0 °F 65% 29.96 in 10.0 mi SSW 12.7 mph 16.1 mph N/A   Scattered Clouds
2:35 PM 78.8 °F - 69.8 °F 74% 29.96 in 10.0 mi SSW 13.8 mph - N/A   Mostly Cloudy
2:55 PM 77.0 °F - 68.0 °F 74% 29.95 in 10.0 mi SW 12.7 mph 16.1 mph N/A   Mostly Cloudy
3:15 PM 77.0 °F - 68.0 °F 74% 29.94 in 10.0 mi SSW 10.4 mph - N/A   Mostly Cloudy
3:35 PM 77.0 °F - 68.0 °F 74% 29.93 in 10.0 mi SW 9.2 mph - N/A   Mostly Cloudy
3:55 PM 80.6 °F 83.2 °F 68.0 °F 65% 29.92 in 10.0 mi SW 11.5 mph - N/A   Scattered Clouds
4:15 PM 78.8 °F - 69.8 °F 74% 29.92 in 10.0 mi West 8.1 mph - N/A   Scattered Clouds
4:35 PM 80.6 °F 83.9 °F 69.8 °F 70% 29.91 in 10.0 mi WSW 5.8 mph - N/A   Scattered Clouds
4:55 PM 78.8 °F - 69.8 °F 74% 29.90 in 10.0 mi SW 9.2 mph - N/A   Mostly Cloudy
5:15 PM 77.0 °F - 71.6 °F 83% 29.91 in 10.0 mi SW 8.1 mph - N/A   Mostly Cloudy
5:35 PM 80.6 °F 83.9 °F 69.8 °F 70% 29.90 in 10.0 mi WSW 5.8 mph - N/A   Scattered Clouds
5:55 PM 78.8 °F - 69.8 °F 74% 29.89 in 10.0 mi SW 8.1 mph - N/A   Scattered Clouds
6:15 PM 78.8 °F - 71.6 °F 78% 29.89 in 10.0 mi West 4.6 mph - N/A   Scattered Clouds
6:35 PM 77.0 °F - 71.6 °F 83% 29.89 in 5.0 mi Calm Calm - 0.01 in Rain , Thunderstorm Light Rain
6:55 PM 69.8 °F - 68.0 °F 94% 29.90 in 0.8 mi West 5.8 mph - 0.52 in Rain Rain
7:15 PM 69.8 °F - 68.0 °F 94% 29.92 in 5.0 mi SSW 4.6 mph - 0.01 in Rain Light Rain
7:35 PM 69.8 °F - 69.8 °F 100% 29.91 in 5.0 mi Calm Calm - 0.03 in Rain Light Rain
7:55 PM 69.8 °F - 69.8 °F 100% 29.91 in 9.0 mi Calm Calm - 0.03 in   Clear
8:15 PM 69.8 °F - 69.8 °F 100% 29.92 in 10.0 mi Calm Calm - N/A   Scattered Clouds
8:35 PM 69.8 °F - 68.0 °F 94% 29.91 in 10.0 mi Calm Calm - N/A Thunderstorm Mostly Cloudy
8:55 PM 69.8 °F - 68.0 °F 94% 29.92 in 10.0 mi SW 4.6 mph - N/A   Mostly Cloudy
9:15 PM 68.0 °F - 68.0 °F 100% 29.93 in 10.0 mi SW 3.5 mph - N/A   Unknown
9:35 PM 68.0 °F - 68.0 °F 100% 29.94 in 10.0 mi Calm Calm - N/A   Unknown
9:55 PM 69.8 °F - 68.0 °F 94% 29.94 in 10.0 mi Calm Calm - N/A   Unknown
10:15 PM 68.0 °F - 68.0 °F 100% 29.95 in 10.0 mi Calm Calm - N/A   Overcast
10:35 PM 69.8 °F - 69.8 °F 100% 29.95 in 10.0 mi Calm Calm - N/A   Overcast
10:55 PM 68.0 °F - 68.0 °F 100% 29.94 in 9.0 mi Calm Calm - N/A   Mostly Cloudy
11:15 PM 69.8 °F - 69.8 °F 100% 29.94 in 10.0 mi Calm Calm - N/A   Unknown
11:35 PM 69.8 °F - 69.8 °F 100% 29.94 in 10.0 mi Calm Calm - N/A   Unknown
11:55 PM 71.6 °F - 71.6 °F 100% 29.94 in 10.0 mi Calm Calm - N/A   Unknown